Location: Chevoux
(46.3801°N, 4.9476°E)
Time: 17:32:58
(UTC+00:00)

NOSS 2-1 (C) - Pass Details

Date: 28 January 2021
Orbit: 432 x 1770 km, 63.3° (Epoch: 24 February)

Event Time Altitude Azimuth Distance (km) Brightness Sun altitude
Rises 17:17:53 0° 217° (SW) 2,465 7.7 -7.1°
Reaches altitude 10° 17:19:59 10° 217° (SW) 1,547 6.6 -7.4°
Maximum altitude 17:23:17 88° 137° (SE) 439 2.8 -7.9°
Drops below altitude 10° 17:26:43 10° 40° (NE) 1,611 5.2 -8.5°
Enters shadow 17:27:10 - 40° (NE) 1,809 5.5 -8.6°
